VE7PRT-1 Weather Reports


Display with metric or nautical units.
time (UTC)temp
F
wind
direction
speed
MPH
gust
MPH
rain 1hr
in
rain 24hr
in
rain mn
in
humidity
%
barometer
mb
20260506133052 52 359 0.0 0.0 0.00 0.00 0.00 97 1018.6
20260506131738 52 359 0.0 0.0 0.00 0.00 0.00 97 1018.6
20260506130414 52 359 0.0 0.0 0.00 0.00 0.00 97 1018.3
20260506125140 52 359 0.0 0.0 0.00 0.00 0.00 97 1018.2
20260506123739 52 359 0.0 0.0 0.00 0.00 0.00 97 1018.2
20260506122444 52 359 0.0 0.0 0.00 0.00 0.00 97 1018.1
20260506121126 53 359 0.0 0.0 0.00 0.00 0.00 97 1018.2
20260506115654 53 359 0.0 0.0 0.00 0.00 0.00 97 1018.1
20260506114247 53 359 0.0 0.0 0.00 0.00 0.00 97 1018.0
20260506112807 53 359 0.0 0.0 0.00 0.00 0.00 96 1018.4
20260506111313 53 359 0.0 0.0 0.00 0.00 0.00 96 1018.3
20260506105901 53 359 0.0 0.0 0.00 0.00 0.00 96 1018.2
20260506104651 53 359 0.0 1.0 0.00 0.00 0.00 96 1018.2
20260506103204 53 359 0.0 0.0 0.00 0.00 0.00 96 1018.0
20260506101724 53 359 0.0 0.0 0.00 0.00 0.00 96 1017.9
20260506100439 53 359 0.0 0.0 0.00 0.00 0.00 96 1018.0
20260506095043 53 359 1.0 3.0 0.00 0.00 0.00 96 1018.2
20260506093824 53 359 0.0 0.0 0.00 0.00 0.00 96 1018.0
20260506092327 53 359 1.0 0.0 0.00 0.00 0.00 96 1017.9
20260506091114 53 359 0.0 0.0 0.00 0.00 0.00 96 1017.9
20260506085719 53 359 0.0 0.0 0.00 0.00 0.00 97 1017.8
20260506084501 53 359 0.0 0.0 0.00 0.00 0.00 96 1017.7
20260506084424 53 359 0.0 0.0 0.00 0.00 0.00 96 1017.7
20260506082949 53 359 0.0 0.0 0.00 0.00 0.00 96 1017.7
20260506081529 53 282 0.0 0.0 0.00 0.00 0.00 96 1017.8
20260506080324 53 283 0.0 0.0 0.00 0.00 0.00 96 1017.7
20260506072354 53 359 0.0 0.0 0.00 0.00 0.00 96 1017.7
20260506070854 53 359 1.0 0.0 0.00 0.00 0.00 96 1017.7
20260506061614 54 359 1.0 0.0 0.00 0.00 0.00 96 1017.4
20260506060117 54 359 0.0 0.0 0.00 0.00 0.00 95 1017.2
20260506050544 54 359 1.0 0.0 0.00 0.00 0.00 95 1017.1
20260506045107 54 359 0.0 0.0 0.00 0.00 0.00 95 1017.1
20260506043801 55 359 0.0 0.0 0.00 0.00 0.00 94 1017.0
20260506043727 55 359 0.0 0.0 0.00 0.00 0.00 94 1017.0
20260506042414 55 359 0.0 0.0 0.00 0.00 0.00 94 1017.0
20260506041047 55 359 0.0 0.0 0.00 0.00 0.00 94 1016.8
20260506035631 55 359 0.0 0.0 0.00 0.00 0.00 94 1016.8
20260506034344 55 359 1.0 2.0 0.00 0.00 0.00 94 1016.8
20260506033010 55 359 0.0 0.0 0.00 0.00 0.00 93 1016.8
20260506031539 55 359 0.0 0.0 0.00 0.00 0.00 93 1016.8
20260506030247 55 359 1.0 0.0 0.00 0.00 0.00 93 1016.7
20260506025039 55 359 0.0 0.0 0.00 0.00 0.00 93 1016.7
20260506023711 55 359 0.0 0.0 0.00 0.00 0.00 92 1016.7
20260506022412 55 359 0.0 0.0 0.00 0.00 0.00 92 1016.8
20260506021037 56 359 0.0 0.0 0.00 0.00 0.00 92 1016.8
20260506015714 56 359 1.0 0.0 0.00 0.00 0.00 92 1016.6
20260506014344 56 359 1.0 0.0 0.00 0.00 0.00 91 1016.4
20260506013014 56 359 1.0 0.0 0.00 0.00 0.00 90 1016.4
20260506011521 56 359 1.0 0.0 0.00 0.00 0.00 91 1016.5
20260506010134 56 359 1.0 0.0 0.00 0.00 0.00 90 1016.4
20260506004805 56 359 2.0 0.0 0.00 0.00 0.00 90 1016.5
20260506003334 56 359 2.0 0.0 0.00 0.00 0.00 90 1016.5
20260506001919 57 359 2.0 4.0 0.00 0.00 0.00 89 1016.7
20260506000515 57 359 1.0 0.0 0.00 0.00 0.00 90 1016.8
20260505235149 57 359 1.0 0.0 0.00 0.00 0.00 89 1017.0
20260505233714 57 359 1.0 0.0 0.00 0.00 0.00 89 1017.1
20260505232419 57 359 0.0 3.0 0.00 0.00 0.00 88 1017.2
20260505231019 57 359 1.0 0.0 0.00 0.00 0.00 89 1017.3
20260505225529 57 359 0.0 0.0 0.00 0.00 0.00 90 1017.4
20260505224047 56 359 1.0 0.0 0.00 0.00 0.00 92 1017.5
20260505222819 56 359 0.0 0.0 0.00 0.00 0.00 92 1017.5
20260505221424 56 359 1.0 0.0 0.00 0.00 0.00 92 1017.6
20260505220115 56 359 0.0 0.0 0.00 0.00 0.00 91 1017.8
20260505214739 57 359 1.0 0.0 0.00 0.00 0.00 91 1017.8
20260505213324 57 359 0.0 1.0 0.00 0.00 0.00 92 1017.8
20260505212047 56 359 1.0 0.0 0.00 0.00 0.00 91 1017.8
20260505210827 56 359 1.0 0.0 0.00 0.00 0.00 90 1017.9
20260505205501 57 359 0.0 0.0 0.00 0.00 0.00 91 1017.8
20260505204244 56 359 0.0 0.0 0.00 0.00 0.00 92 1017.6
20260505202926 56 359 0.0 0.0 0.00 0.00 0.00 92 1017.6
20260505201603 57 359 1.0 1.0 0.00 0.00 0.00 92 1017.6
20260505200354 57 359 1.0 3.0 0.00 0.00 0.00 91 1017.5
20260505195134 56 359 1.0 0.0 0.00 0.00 0.00 92 1017.4
20260505193818 56 359 1.0 0.0 0.00 0.00 0.00 92 1017.4
20260505192606 56 359 1.0 0.0 0.00 0.00 0.00 92 1017.2
20260505191327 56 359 0.0 2.0 0.00 0.00 0.00 93 1017.2
20260505185854 55 359 1.0 0.0 0.00 0.00 0.00 93 1017.1
20260505184446 55 359 1.0 3.0 0.00 0.00 0.00 94 1016.9
20260505184414 55 359 1.0 3.0 0.00 0.00 0.00 94 1016.9
20260505183124 55 359 1.0 3.0 0.00 0.00 0.00 94 1016.9
20260505181639 55 359 1.0 3.0 0.00 0.00 0.00 94 1016.8
20260505180506 55 359 1.0 0.0 0.00 0.00 0.00 94 1016.7
20260505180434 55 359 1.0 0.0 0.00 0.00 0.00 94 1016.7
20260505175233 54 359 1.0 0.0 0.00 0.00 0.00 95 1016.7
20260505173844 54 359 1.0 0.0 0.00 0.00 0.00 95 1016.6
20260505172347 54 359 0.0 0.0 0.00 0.00 0.00 95 1016.5
20260505171032 53 359 0.0 0.0 0.00 0.00 0.00 95 1016.4
20260505165738 53 359 0.0 0.0 0.00 0.00 0.00 95 1016.4
20260505164439 53 359 0.0 0.0 0.00 0.00 0.00 95 1016.4
20260505163234 53 359 0.0 0.0 0.00 0.00 0.00 96 1016.3
20260505161839 53 359 0.0 0.0 0.00 0.00 0.00 96 1016.2
20260505160519 53 359 0.0 0.0 0.00 0.00 0.00 96 1016.1
20260505152427 53 359 0.0 0.0 0.00 0.00 0.00 96 1016.0
20260505151059 53 359 0.0 0.0 0.00 0.00 0.00 96 1016.0
20260505140404 52 359 0.0 0.0 0.00 0.00 0.00 96 1015.0